Location: Isle of Man Observatory
(54.1776°N, 4.6264°W)
Time: 11:25:15
(UTC+02:00)

X-37B - Visible Passes

Search period start: 30 September 2022 00:00
Search period end: 10 October 2022 00:00
Orbit: 329 x 342 km, 45.0° (Epoch: 29 September)

Date Brightness Start Highest point End Pass type
(mag) Time Alt. Az. Time Alt. Az. Time Alt. Az.
30 Sep 2.6 06:42:04 14° S 06:42:26 14° S 06:44:04 10° SE visible
01 Oct 2.7 07:01:40 12° SSW 07:02:31 13° S 07:04:03 10° SSE visible
02 Oct 2.9 07:21:52 10° SSW 07:22:35 11° SSW 07:23:18 10° S visible
